| time (UTC) | temp C | wind direction | speed KPH | gust KPH | rain 1hr cm | rain 24hr cm | rain mn cm | humidity % | barometer mb |
| 20260510031803 | 20 | 53 | 3.2 | 4.8 | 0.00 | 0.00 | 0.00 | 59 | 1012.5 |
| 20260510030804 | 20 | 75 | 1.6 | 4.8 | 0.00 | 0.00 | 0.00 | 57 | 1012.4 |
| 20260510025804 | 21 | 342 | 0.0 | 3.2 | 0.00 | 0.00 | 0.00 | 54 | 1012.1 |
| 20260510025306 | 21 | 46 | 0.0 | 4.8 | 0.00 | 0.00 | 0.00 | 53 | 1011.8 |
| 20260510024804 | 21 | 54 | 3.2 | 9.7 | 0.00 | 0.00 | 0.00 | 52 | 1011.7 |
| 20260510024303 | 22 | 27 | 3.2 | 9.7 | 0.00 | 0.00 | 0.00 | 50 | 1011.5 |
| 20260510023803 | 22 | 44 | 3.2 | 9.7 | 0.00 | 0.00 | 0.00 | 50 | 1011.4 |
| 20260510023304 | 22 | 42 | 6.4 | 11.3 | 0.00 | 0.00 | 0.00 | 49 | 1011.3 |
| 20260510022306 | 22 | 2 | 6.4 | 14.5 | 0.00 | 0.00 | 0.00 | 48 | 1011.0 |
| 20260510021303 | 21 | 42 | 9.7 | 24.1 | 0.00 | 0.00 | 0.00 | 51 | 1010.8 |
| 20260510020804 | 21 | 33 | 3.2 | 11.3 | 0.00 | 0.00 | 0.00 | 55 | 1010.6 |
| 20260510020304 | 21 | 13 | 1.6 | 4.8 | 0.00 | 0.00 | 0.00 | 52 | 1010.2 |
| 20260510015804 | 21 | 311 | 0.0 | 0.0 | 0.00 | 0.00 | 0.00 | 52 | 1010.1 |
| 20260510015306 | 22 | 311 | 0.0 | 4.8 | 0.00 | 0.00 | 0.00 | 53 | 1010.0 |
| 20260510014803 | 22 | 244 | 3.2 | 8.0 | 0.00 | 0.00 | 0.00 | 50 | 1009.8 |
| 20260510014304 | 22 | 215 | 4.8 | 11.3 | 0.00 | 0.00 | 0.00 | 49 | 1009.6 |
| 20260510013804 | 21 | 187 | 4.8 | 11.3 | 0.00 | 0.00 | 0.00 | 52 | 1009.5 |
| 20260510013303 | 21 | 198 | 1.6 | 8.0 | 0.00 | 0.00 | 0.00 | 54 | 1009.5 |
| 20260510012803 | 21 | 43 | 3.2 | 4.8 | 0.00 | 0.00 | 0.00 | 58 | 1009.5 |
| 20260510011804 | 22 | 246 | 1.6 | 3.2 | 0.00 | 0.00 | 0.00 | 54 | 1009.4 |
| 20260510011303 | 22 | 299 | 0.0 | 3.2 | 0.00 | 0.00 | 0.00 | 53 | 1009.3 |
| 20260510010804 | 23 | 79 | 3.2 | 4.8 | 0.00 | 0.00 | 0.00 | 54 | 1009.2 |
| 20260510005804 | 23 | 55 | 1.6 | 3.2 | 0.00 | 0.00 | 0.00 | 52 | 1009.1 |
| 20260510005306 | 24 | 53 | 3.2 | 3.2 | 0.00 | 0.00 | 0.00 | 50 | 1008.9 |
| 20260510004803 | 24 | 46 | 3.2 | 4.8 | 0.00 | 0.00 | 0.00 | 47 | 1008.8 |
| 20260510004304 | 25 | 30 | 0.0 | 3.2 | 0.00 | 0.00 | 0.00 | 46 | 1008.8 |
| 20260510003803 | 25 | 36 | 1.6 | 3.2 | 0.00 | 0.00 | 0.00 | 43 | 1008.8 |
| 20260510003303 | 25 | 35 | 1.6 | 3.2 | 0.00 | 0.00 | 0.00 | 46 | 1008.7 |
| 20260510002306 | 26 | 16 | 0.0 | 1.6 | 0.00 | 0.00 | 0.00 | 37 | 1008.6 |
| 20260510001804 | 26 | 67 | 1.6 | 3.2 | 0.00 | 0.00 | 0.00 | 37 | 1008.5 |
| 20260510001304 | 27 | 28 | 0.0 | 0.0 | 0.00 | 0.00 | 0.00 | 40 | 1008.6 |
| 20260510000804 | 27 | 28 | 0.0 | 0.0 | 0.00 | 0.00 | 0.00 | 41 | 1008.6 |
| 20260509235804 | 27 | 28 | 0.0 | 0.0 | 0.00 | 0.00 | 0.00 | 36 | 1008.6 |
| 20260509235306 | 28 | 28 | 0.0 | 1.6 | 0.00 | 0.00 | 0.00 | 34 | 1008.6 |
| 20260509234804 | 28 | 13 | 0.0 | 1.6 | 0.00 | 0.00 | 0.00 | 35 | 1008.5 |
| 20260509234303 | 29 | 338 | 0.0 | 3.2 | 0.00 | 0.00 | 0.00 | 31 | 1008.5 |
| 20260509233804 | 30 | 19 | 1.6 | 3.2 | 0.00 | 0.00 | 0.00 | 31 | 1008.5 |
| 20260509233304 | 30 | 3 | 1.6 | 3.2 | 0.00 | 0.00 | 0.00 | 29 | 1008.5 |
| 20260509232803 | 30 | 355 | 3.2 | 8.0 | 0.00 | 0.00 | 0.00 | 29 | 1008.5 |
| 20260509232306 | 30 | 341 | 1.6 | 4.8 | 0.00 | 0.00 | 0.00 | 30 | 1008.5 |